Location: Boise
(43.6140°N, 116.2030°W)
Time: 22:17:39
(UTC-06:00)

ISS - Visible Passes

Search period start: 30 April 2017 00:00
Search period end: 10 May 2017 00:00
Orbit: 401 x 409 km, 51.6° (Epoch: 01 May)

Date Brightness Start Highest point End Pass type
(mag) Time Alt. Az. Time Alt. Az. Time Alt. Az.
05 May -1.3 05:18:17 10° SSE 05:20:07 14° SE 05:21:56 10° E visible
07 May -2.5 05:10:11 17° SSW 05:12:04 31° SE 05:15:01 10° ENE visible
08 May -1.7 04:20:03 18° SE 04:20:06 18° SE 04:22:21 10° E visible
08 May -3.6 05:53:02 10° WSW 05:56:16 64° NNW 05:59:31 10° NE visible
09 May -3.8 05:02:29 27° SW 05:04:07 74° SE 05:07:23 10° ENE visible
